www.pogodaiklimat.ru

Погода и климат >> Архив погоды >> Россия >> Красноярский край >> Игарка


АРХИВ ПОГОДЫ в Игарке

Время (UTC), дата Ветер
(напр.,м/с)
 
Видим.   Явления Облачность Т
(С)
Тd
(С)
f
(%)
Тe
(С)
Тes
(С)
Комфортность P
(гПа)
Po
(гПа)
Тmin
(С)
Tmax
(С)
R
(мм)
R24
(мм)
S
(см)
18 14.05 С 4 10 км ясно -3.6 -6.5 80 -10 -10 1022.2 1018.6
21 14.05 СЗ 2 20 км ясно -7.3 -9.0 88 -12 -12 1022.2 1018.6
00 15.05 С 2 20 км ясно -6.0 -9.1 79 -10 -8 1022.0 1018.4 -8.2 79
03 15.05 С 3 20 км 1/0
[Ci fib]
-2.4 -8.8 61 -7 -1 1022.3 1018.7
06 15.05 СВ 3 20 км 1/0
[Ci fib]
+2.6 -7.7 47 -1 +8 1022.0 1018.5
09 15.05 С 3 20 км ясно +4.0 -7.5 43 +1 +7 1022.0 1018.5
12 15.05 С 3 20 км ясно +3.2 -5.9 51 -0 +2 1022.3 1018.8 +4.5
15 15.05 С 3 20 км 1/0
[Ci fib]
-0.8 -7.2 62 -5 -5 1022.8 1019.2
18 15.05 С 2 10 км 3/0
[Ci fib]
-5.4 -8.7 78 -10 -10 1023.1 1019.5
21 15.05 С 2 20 км 3/0
[Ci fib]
-8.4 -10.7 83 -13 -13 1023.2 1019.5
00 16.05 С 2 20 км 4/0
[Ci fib]
-6.2 -10.2 73 -10 -9 1023.3 1019.7 -8.6 77
03 16.05 С 2 20 км 4/0
[Ci fib]
-1.0 -7.5 61 -4 +2 1023.4 1019.8
06 16.05 СВ 2 20 км 6/0
[Ci fib]
+3.4 -6.4 49 +1 +10 опасность
простуды
1022.7 1019.1
09 16.05 В 2 20 км 1/0
[Ci fib]
+4.0 -6.3 47 +2 +9 1022.5 1019.0
12 16.05 В 2 20 км ясно +4.1 -5.3 50 +2 +5 1022.3 1018.8 +4.5
15 16.05 СВ 1 20 км ясно +2.2 -6.5 53 +1 +1 1022.0 1018.5
18 16.05 С 3 20 км ясно +2.7 -8.0 45 -1 -1 1021.6 1018.0
21 16.05 С 1 20 км ясно -4.6 -3.9 100 -7 -7 1021.8 1018.2
00 17.05 СВ 1 20 км ясно -0.3 -8.0 56 -2 +1 1021.4 1017.8 -5.3 76
03 17.05 В 3 20 км 3/0
[Ci fib]
+3.8 -6.6 47 +1 +6 1021.0 1017.5
06 17.05 В 2 20 км 1/0
[Ci fib]
+5.3 -6.0 44 +3 +14 опасность
простуды
1020.5 1017.0
09 17.05 В 3 20 км ясно +6.0 -5.2 44 +3 +10 1020.2 1016.7
12 17.05 СВ 3 20 км ясно +6.3 -5.2 44 +4 +6 1020.0 1016.5 +6.6
15 17.05 СВ 3 20 км 3/0
[Ci fib]
+4.0 -4.7 53 +1 +1 1019.7 1016.2
18 17.05 В 2 10 км ясно +0.4 -5.4 65 -3 -3 1019.8 1016.2
21 17.05 СВ 2 20 км 1/0
[Ac trans]
-1.6 -6.1 71 -5 -5 1019.5 1015.9
00 18.05 ЮВ 2 20 км 1/0
[Ac trans]
+2.8 -3.4 64 0 +2 1019.2 1015.7 -2.3 74
03 18.05 ЮВ 4 20 км 4/0
[Ci fib]
+6.0 -3.7 50 +3 +7 1018.7 1015.2
06 18.05 ЮВ 5 20 км 3/1
[Cu hum Ci fib]
+7.2 -3.4 47 +4 +9 1017.8 1014.4
09 18.05 В 4 20 км 3/1 1000 м
[Cu hum Ci fib]
+7.0 -4.0 45 +4 +9 1016.8 1013.4
12 18.05 В 4
{10}
20 км 1/1 1000 м
[Cu hum]
+6.9 -3.4 48 +4 +6 1016.4 1012.9 +7.8
15 18.05 В 4 20 км ясно +5.3 -4.1 51 +2 +2 1015.7 1012.2
18 18.05 В 3 20 км ясно +2.0 -4.8 61 -2 -2 1014.4 1010.9
21 18.05 СВ 4 20 км 3/0
[Ac trans Ci fib]
+0.6 -5.5 64 -4 -4 1012.6 1009.1
00 19.05 В 4 20 км 9/0 2000 м
[Ac trans Ci fib]
+3.4 -4.8 55 -1 0 1011.0 1007.5 +0.1 68
03 19.05 В 5 20 км 9/0
[Ac trans Cs]
+5.6 -2.8 55 +2 +4 1009.1 1005.6
06 19.05 В 5
{11}
20 км 9/4 1000 м
[Sc Ac trans Cs]
+6.9 -2.3 52 +3 +5 1007.6 1004.2
09 19.05 В 5
{12}
10 км слаб. дождь 9/8 1000 м
[Sc As op]
+5.5 +0.3 69 +1 +2 1006.9 1003.5
12 19.05 В 3 20 км {дождь} 9/6 1000 м
[Sc As op]
+4.7 0.0 72 +1 +2 1005.8 1002.4 +7.3 0.0
15 19.05 В 3 10 км слаб. дождь 9/8 1000 м
[Sc As op]
+3.6 +0.7 81 -0 -0 1005.2 1001.8
18 19.05 В 3 20 км в посл. час дождь 9/8 1000 м
[Sc As op]
+3.0 +1.2 88 -1 -1 1003.6 1000.2
21 19.05 СВ 3 20 км {дождь} 9/8 1000 м
[Sc As op]
+2.7 +1.1 89 -1 -1 1001.7 998.3
00 20.05 СВ 3 20 км {дождь} 9/8 1000 м
[Sc As op]
+3.9 +1.9 87 0 0 1000.1 996.7 +2.3 0.8 65
03 20.05 СВ 3 10 км слаб. дождь 9/8 600 м
[Sc As op]
+6.3 +3.2 81 +3 +4 999.1 995.7
06 20.05 СВ 3 10 км слаб. дождь 9/8 600 м
[Sc Ac As]
+6.7 +2.6 75 +4 +5 998.8 995.4
09 20.05 СВ 2 10 км слаб. дождь 9/8 600 м
[Sc As op]
+6.1 +3.0 80 +4 +5 999.3 995.9
12 20.05 С 2 10 км слаб. дождь 9/6 600 м
[Sc As op]
+5.5 +2.6 82 +3 +3 999.7 996.3 +7.2 0.5
15 20.05 С 2 10 км слаб. дождь 9/8 600 м
[Sc Ac As]
+3.4 +2.4 93 0 0 999.0 995.6
18 20.05 С 2 4000 м слаб. ливневой дождь 10/10 200 м
[Cb cap]
+1.0 +0.2 94 -3 -3 998.2 994.7
21 20.05 С 3 20 км в посл. час ливневой снег 10/10 100 м
[Cb cap]
-1.1 -1.7 96 -6 -6 996.7 993.2
00 21.05 С 3 4000 м слаб. ливневой снег 10/10 100 м
[Cb cap]
-3.3 -4.0 95 -9 -9 995.8 992.3 -3.5 1 62
03 21.05 СЗ 2 4000 м слаб. ливневой снег 10/10 100 м
[Cb cap]
-2.5 -3.4 94 -7 -7 995.4 991.9 -3.9
06 21.05 СЗ 2 20 км в посл. час ливневой снег 10/10 300 м
[Cb cap]
-0.3 -2.7 84 -4 -4 995.3 991.8
09 21.05 штиль 0 20 км 9/6 300 м
[Sc diur, vesp Ac cuf]
+2.4 -1.5 75 +2 +4 995.5 992.1
12 21.05 С 2 20 км в посл. час дождь 9/4 300 м
[Sc As op]
+3.4 +0.2 80 +1 +1 996.1 992.7 +3.6 0.4
15 21.05 С 2 10 км слаб. ливневой дождь 9/6 1000 м
[Cb cap Ac cuf]
+2.6 -0.1 82 -1 -1 996.1 992.7

 

Местоположение метеостанции Игарка (Красноярский край, Россия): широта 67.47 долгота 86.57 высота над уровнем моря 28 м.

В архиве по умолчанию представлена погода в Игарке за последнюю неделю. Архивные данные за месяц целиком и за предыдущие месяцы, начиная с января 2011 года, Вы можете получить, выбрав интересующий диапазон дат из раскрывающегося списка и нажав кнопку "Ввод!".


*Определитесь, кто Вы:
робот инопланетянин человек

Внимание! Время в таблицах - всемирное. Для получения местного времени необходимо прибавить поправку, которая равна 7 ч.

Смотрите также архив погоды в соседних городах и на ближайших метеорологических станциях:

Погода в Горбиачине (Красноярский край, Россия) (54 км)
Погода в Снежногорске (Красноярский край, Россия) (86 км)
Погода в Светлогорске (Красноярский край, Россия) (98 км)
Погода в Курейке (Красноярский край, Россия) (115 км)
Погода в Потапово (Красноярский край, Россия) (134 км)
Погода в Советской Речке (Красноярский край, Россия) (140 км)
Погода в Туруханске (Красноярский край, Россия) (197 км)
Погода в Норильске (Красноярский край, Россия) (219 км)
Погода в Большом Пороге (Эвенкия, Россия) (256 км)
Погода в Красноселькупске (Ямало-Ненецкий АО, Россия) (268 км)

Пояснения к столбцам:

Ветер - указаны скорость ветра в м/с - средняя за 10 мин, порывы в срок и между сроками (в фигурных скобках) и направление, откуда дует ветер: С - северный, СВ - северо-восточный, В - восточный, ЮВ - юго-восточный, Ю - южный, ЮЗ - юго-западный, З - западный, СЗ - северо-западный.
Видимость - горизонтальная дальность видимости в метрах или километрах. При видимости от 1 до 10 км при отсутствии осадков обычно наблюдается дымка, при ухудшении видимости до 1 км и менее - туман. В сухую погоду видимость может ухудшаться дымом, пылью или мглою.
Явления - указаны атмосферные явления, наблюдавшиеся в срок или в последний час перед сроком; фигурными скобками обозначены явления, наблюдавшиеся между сроками (за 1-3 часа до срока); квадратными скобками обозначены град или гололедные отложения с указанием их диаметра в мм.
Облачность - указаны через наклонную черту общая и нижняя облачность в баллах и высота нижней границы облаков в метрах; квадратными скобками обозначены формы облаков: Ci - перистые, Cs - перисто-слоистые, Cc - перисто-кучевые, Ac - высококучевые, As - высокослоистые, Sc - слоисто-кучевые, Ns - слоисто-дождевые, Cu - кучевые, Cb - кучево-дождевые. Подробнее классификацию облаков см. в Атласе облаков (PDF).
T - Температура воздуха - температура, измеренная на высоте 2 м над землей.
Td - Температура точки росы - температура, при понижении до которой содержащийся в воздухе водяной пар достигнет насыщения.
f - Относительная влажность воздуха - влажноcть воздуха, измеренная на высоте 2 м над землей.
Te - Эффективная температура - температура, которую ощущает одетый по сезону человек в тени. Характеристика душности погоды. При расчете учитывается влияние влажности воздуха и скорости ветра на теплоощущения человека.
Tes - Эффективная температура на солнце - температура, которую ощущает человек, с поправкой на солнечный нагрев. Характеристика знойности погоды. Зависит от высоты солнца над горизонтом, облачности и скорости ветра. Ночью, в пасмурную погоду, а также при ветре 12 м/с и более поправка равна нулю.
P - Атмосферное давление - приведенное к уровню моря атмосферное давление.
Po - Атмосферное давление - измеренное на уровне метеостанции атмосферное давление.
Tmin - Минимальная температура - минимум температуры воздуха на высоте 2 м над землей.
Tmax - Максимальная температура - максимум температуры воздуха на высоте 2 м над землей.
R - Количество осадков - Количество выпавших осадков за период времени, мм. При наведении курсора мыши на число - период времени, за который выпало указанное количество осадков.
R24 - Количество осадков - Количество выпавших осадков за 24 часа, мм.
S - Снежный покров - Высота снежного покрова, см. При наведении курсора мыши на число - состояние снежного покрова и степень покрытия местности в баллах.